[Iaude] MPEC D03: 2024 CX6 [a=1.04,e=0.39,i=17.2,H=23.6]
    mpec at cfa.harvard.edu 
    mpec at cfa.harvard.edu
       
    Fri Feb 16 05:38:27 EST 2024
    
    
  
M.P.E.C. 2024-D03                             Issued 2024 February 16, 10:36 UT
     The Minor Planet Electronic Circulars contain information on unusual
         minor planets, routine data on comets and natural satellites,
         and occasional editorial announcements.  They are published
    on behalf of Division F of the International Astronomical Union by the
          Minor Planet Center, Smithsonian Astrophysical Observatory,
                          Cambridge, MA 02138, U.S.A.
			  
             Prepared using the Tamkin Foundation Computer Network
                              MPC at CFA.HARVARD.EDU
            URL https://www.minorplanetcenter.net/    ISSN 1523-6714
                                    2024 CX6                                    
Observations:
     K24C06X* C2024 02 14.61720113 28 12.053+04 49 11.35         21.50wXED003F52
     K24C06X  C2024 02 14.62706513 28 13.726+04 48 29.46         21.67wXED003F52
     K24C06X  C2024 02 14.63683613 28 15.405+04 47 47.69         21.97wXED003F52
     K24C06X  C2024 02 14.64663313 28 17.090+04 47 05.98         21.73wXED003F52
     K24C06X  C2024 02 15.52390913 31 11.319+03 42 02.52         21.61GVED003F51
     K24C06X  C2024 02 15.52472613 31 11.489+03 41 58.13         21.85GVED003F51
     K24C06X KC2024 02 16.40931913 34 15.910+02 30 19.94         21.47GVED003I52
     K24C06X KC2024 02 16.41344313 34 16.730+02 29 59.60         22.03GVED003I52
     K24C06X KC2024 02 16.41757013 34 17.602+02 29 39.34         21.80GVED003I52
     K24C06X KC2024 02 16.42803313 34 19.686+02 28 45.80         21.66GVED003I52
Observer details:
F51 Pan-STARRS 1, Haleakala.  Observers J. Herman, T. Lowe, P. Minguez, A.
    Schultz, I. Smith.  Measurers K. Chambers, T. de Boer, J. Fairlamb, H.
    Gao, M. Huber, C.-C. Lin, E. Magnier, Y. Ramanjooloo, R. Wainscoat, R.
    Weryk.  1.8-m Ritchey-Chretien + CCD.
F52 Pan-STARRS 2, Haleakala.  Observers J. Herman, T. Lowe, P. Minguez, A.
    Schultz, I. Smith.  Measurers K. Chambers, T. de Boer, J. Fairlamb, H.
    Gao, M. Huber, C.-C. Lin, E. Magnier, Y. Ramanjooloo, R. Wainscoat, R.
    Weryk.  1.8-m Ritchey-Chretien + CCD.
I52 Steward Observatory, Mt. Lemmon Station.  Observer J. B. Fazekas.
    Measurers E. C. Beshore, D. Fay, J. B. Fazekas, D. C. Fuls, A. R. Gibbs,
    A. D. Grauer, H. Groeller, J. K. Hogan, R. A. Kowalski, S. M. Larson, G.
    J. Leonard, D. Rankin, R. L. Seaman, F. C. Shelly, K. W. Wierzchos.  1.0-m
    prime focus + CCD.
Orbital elements:
2024 CX6                                                 Earth MOID = 0.0313 AU
Epoch 2024 Mar. 31.0 TT = JDT 2460400.5                 MPC                     
M 325.21285              (2000.0)            P               Q                  
n   0.92460610     Peri.  293.28462     +0.06474323     +0.99258561             
a   1.0435138      Node   339.60870     -0.77322638     -0.01526570             
e   0.3878490      Incl.   17.17176     -0.63081636     +0.12058508             
P   1.07           H   23.68          G   0.15           U   9                  
Residuals in seconds of arc
240214 F52  0.1+  0.1-    240215 F51  0.0   0.3+    240216 I52  0.4+  0.6+
240214 F52  0.1-  0.0     240215 F51  0.3+  0.3-    240216 I52  0.5+  0.1+
240214 F52  0.1-  0.1-    240216 I52  0.4-  0.6-
240214 F52  0.1-  0.1+    240216 I52  0.4-  0.1-
Ephemeris:
2024 CX6                 a,e,i = 1.04, 0.39, 17                  q = 0.6388
Date    TT    R. A. (2000) Decl.     Delta      r    Elong.  Phase     V
2024 01 17    12 29 48.9 +19 14 03   0.4697  1.2583   115.3    45.0    24.3
...
2024 02 01    12 56 17.0 +14 34 16   0.3150  1.1833   122.2    44.8    23.3
...
2024 02 09    13 12 59.9 +10 03 39   0.2367  1.1383   124.8    45.4    22.6
...
2024 02 15    13 29 25.9 +04 21 50   0.1813  1.1025   125.4    46.9    22.0
2024 02 16    13 32 47.7 +03 04 41   0.1724  1.0964   125.3    47.4    21.8
2024 02 17    13 36 25.2 +01 39 30   0.1637  1.0902   125.0    47.9    21.7
...
2024 02 23    14 07 06.3 -10 59 03   0.1159  1.0521   120.1    54.4    21.1
...
2024 03 02    16 02 20.1 -45 31 14   0.07990 0.9990    93.4    82.0    21.1
...
2024 03 17    23 05 18.5 -47 52 58   0.1600  0.8945    47.4   125.0    24.7
A. U. Tomatic                (C) Copyright 2024 MPC           M.P.E.C. 2024-D03
    
    
More information about the Iaude
mailing list